TimeEST,TemperatureF,Dew PointF,Humidity,Sea Level PressureIn,VisibilityMPH,Wind Direction,Wind SpeedMPH,Gust SpeedMPH,PrecipitationIn,Events,Conditions,WindDirDegrees,DateUTC
12:54 AM,51.1,28.9,43,30.39,10.0,West,8.1,-,N/A,,Clear,270,2013-01-10 05:54:00
1:54 AM,48.9,30.0,48,30.41,10.0,West,5.8,-,N/A,,Clear,280,2013-01-10 06:54:00
2:54 AM,46.9,30.9,54,30.44,10.0,NW,3.5,-,N/A,,Clear,310,2013-01-10 07:54:00
3:54 AM,46.9,28.9,50,30.44,10.0,NW,5.8,-,N/A,,Clear,310,2013-01-10 08:54:00
4:54 AM,46.0,27.0,47,30.45,10.0,WNW,4.6,-,N/A,,Clear,290,2013-01-10 09:54:00
5:54 AM,39.9,30.9,70,30.48,10.0,Calm,Calm,-,N/A,,Clear,0,2013-01-10 10:54:00
6:54 AM,37.9,28.9,70,30.51,10.0,Calm,Calm,-,N/A,,Clear,0,2013-01-10 11:54:00
7:54 AM,39.0,32.0,76,30.55,10.0,NNW,4.6,-,N/A,,Clear,340,2013-01-10 12:54:00
8:54 AM,44.1,30.0,58,30.58,10.0,NW,4.6,-,N/A,,Clear,310,2013-01-10 13:54:00
9:54 AM,46.0,28.0,50,30.60,10.0,NW,8.1,-,N/A,,Clear,310,2013-01-10 14:54:00
10:54 AM,46.9,28.0,48,30.60,10.0,NW,8.1,-,N/A,,Clear,320,2013-01-10 15:54:00
11:54 AM,46.9,28.9,50,30.57,10.0,NNW,8.1,-,N/A,,Clear,330,2013-01-10 16:54:00
12:54 PM,48.0,30.0,50,30.54,10.0,NNW,8.1,-,N/A,,Clear,340,2013-01-10 17:54:00
1:54 PM,48.0,32.0,54,30.53,10.0,NNW,6.9,-,N/A,,Clear,340,2013-01-10 18:54:00
2:54 PM,51.1,28.0,41,30.52,10.0,NW,4.6,-,N/A,,Clear,320,2013-01-10 19:54:00
3:54 PM,46.9,30.0,52,30.53,10.0,NE,9.2,-,N/A,,Clear,50,2013-01-10 20:54:00
4:54 PM,45.0,30.0,56,30.53,10.0,Calm,Calm,-,N/A,,Clear,0,2013-01-10 21:54:00
5:54 PM,45.0,30.0,56,30.52,10.0,Calm,Calm,-,N/A,,Clear,0,2013-01-10 22:54:00
6:54 PM,44.1,28.9,55,30.54,10.0,Calm,Calm,-,N/A,,Clear,0,2013-01-10 23:54:00
7:54 PM,44.1,30.0,58,30.53,10.0,Calm,Calm,-,N/A,,Clear,0,2013-01-11 00:54:00
8:54 PM,42.1,34.0,73,30.53,10.0,Calm,Calm,-,N/A,,Clear,0,2013-01-11 01:54:00
9:54 PM,43.0,32.0,65,30.54,10.0,ENE,3.5,-,N/A,,Clear,60,2013-01-11 02:54:00
10:54 PM,41.0,33.1,73,30.53,10.0,Calm,Calm,-,N/A,,Clear,0,2013-01-11 03:54:00
11:54 PM,39.9,35.1,83,30.52,10.0,Calm,Calm,-,N/A,,Clear,0,2013-01-11 04:54:00